User: anonymous   Login
Location: Unspecified
(0.0000°N, 0.0000°E)
Time: 17:29:26
(UTC+02:00)
Language:

CZ-2C R/B - Orbit

View from above orbital plane
View from above orbital plane
View from above satellite
View from above satellite

Ground track
Ground track

The orbit data is extracted from the following two-line orbital elements,

1 28480U 04046B   16274.20624843  .00000039  00000-0  30972-4 0  9992
2 28480  98.1910  21.2218 0140838 271.8064 145.9421 14.25608537617191
Epoch (UTC): 30 September 2016 04:56:59
Eccentricity: 0.0140838
inclination: 98.1910°
perigee height: 705 km
apogee height: 907 km
right ascension of ascending node: 21.2218°
argument of perigee: 271.8064°
revolutions per day: 14.25608537
mean anomaly at epoch: 145.9421°
orbit number at epoch: 61719

The dashed part of the orbit path shows where the satellite is in the earth's shadow,  

DLR